Regional Weather Roundup
Issued by NWS

Home | Current Version | Previous Version | Text Only | Print | Product List | Glossary Off
Versions: 1 2 3 4 5 6 7 8 9 10 11 12 13 14 15 16 17 18 19 20 21 22 23 24 25 26 27 28 29 30 31 32 33 34 35 36 37 38 39 40 41 42 43 44 45 46 47 48 49 50

000
ASUS43 KMPX 271310
RWRMN
WEATHER ROUNDUP FOR MINNESOTA
NATIONAL WEATHER SERVICE TWIN CITIES/CHANHASSEN MN
800 AM CDT THU AUG 27 2015


NOTE: "FAIR" INDICATES FEW OR NO CLOUDS BELOW 12,000 FEET WITH NO
SIGNIFICANT WEATHER AND/OR OBSTRUCTIONS TO VISIBILITY. N/A MEANS
CURRENT SKY AND/OR WEATHER CONDITIONS ARE NOT AVAILABLE.

MNZ060>063-068>070-271400-
   Twin Cities Metro

CITY           SKY/WX    TMP DP  RH WIND       PRES   REMARKS
TWIN CITIES    PTSUNNY   62  54  74 SE5       30.11F
ST PAUL        MOSUNNY   60  56  86 SE7       30.11F
CRYSTAL        PTSUNNY   64  55  72 S7        30.08F
BLAINE         MOSUNNY   63  57  82 SE5       30.09F
LAKEVILLE      CLOUDY    57  55  94 CALM      30.12S
EDEN PRAIRIE   PTSUNNY   62  55  77 SE7       30.10S
SOUTH ST PAUL  PTSUNNY   60  55  83 SE5       30.11F
LAKE ELMO      CLOUDY    59  55  88 NE3       30.12F
$$
MNZ001>005-007-008-013>017-022>024-027-028-271400-
   Northwest Minnesota

CITY           SKY/WX    TMP DP  RH WIND       PRES   REMARKS
BEMIDJI        SUNNY     53  51  92 CALM      30.06S
HALLOCK        SUNNY     57  54  88 SE9       30.00R
ROSEAU         SUNNY     54  48  82 CALM      30.02F
WARROAD        SUNNY     54  48  82 S3        30.03F
THIEF RVR FALL SUNNY    N/A N/A N/A SE3       30.02F
CROOKSTON      SUNNY     57  54  88 E5        30.01F
FOSSTON        SUNNY     55  52  88 E5        30.04S
DETROIT LAKES  CLOUDY    59  54  82 SE5       30.04F
MOORHEAD       MOSUNNY   59  55  88 E7        30.00F
PARK RAPIDS    MOSUNNY   57  51  80 SE7       30.06S
MAHNOMEN       FAIR      57  54  88 SE5       30.02F
$$
MNZ006-009>011-018-025>026-271400-
   North Central Minnesota

CITY           SKY/WX    TMP DP  RH WIND       PRES   REMARKS
BAUDETTE       SUNNY     51  49  92 SE3       30.05F
FLAG ISLAND    SUNNY     61  55  82 CALM      30.02F
INTL FALLS     SUNNY     49  47  93 SE3       30.07F
WASKISH        SUNNY     52  52 100 E3        30.05F
BIG FORK       SUNNY     46  45  93 CALM      30.08F
LONGVILLE      SUNNY     52  52 100 CALM      30.07F
GRAND RAPIDS   SUNNY     52  48  87 S7        30.10R
CRANE LAKE     SUNNY     43  41  93 CALM      30.11F
ORR            SUNNY     50  46  87 CALM      30.08S
COOK           SUNNY     46  45  93 CALM      30.10F
WALKER         FAIR      56  52  84 S5        30.06S
$$
MNZ012-019>021-037-271400-
   Northeast Minnesota

CITY           SKY/WX    TMP DP  RH WIND       PRES   REMARKS
DULUTH         SUNNY     53  49  86 S3        30.12R
ELY            SUNNY     45  43  93 CALM      30.11F
HIBBING        SUNNY     45  43  93 CALM      30.10F
EVELETH        SUNNY     45  45 100 CALM      30.12S
DULUTH HARBOR  MOSUNNY   54  52  94 NE6       30.13S
TWO HARBORS    SUNNY     52  46  82 CALM      30.11S
SILVER BAY     SUNNY     46  45  93 CALM      30.11F FOG
GRAND MARAIS     N/A     53  50  89 CALM      30.14S
G MARAIS ARPRT SUNNY     46  43  87 CALM      30.16S
$$
MNZ029>031-032-039>041-046>048-054>057-064-271400-
   West Central Minnesota

CITY           SKY/WX    TMP DP  RH WIND       PRES   REMARKS
FERGUS FALLS   PTSUNNY   63  55  77 SE6       30.01F
WHEATON        CLOUDY    57  55  94 SE7       30.02F
MORRIS         CLOUDY    61  57  88 SE6       30.02F
ALEXANDRIA     PTSUNNY   60  55  83 SE9       30.06S
ELBOW LAKE     FAIR      60  56  87 SE8       30.03R
WADENA         CLOUDY    57  54  88 CALM      30.04F
GLENWOOD       PTSUNNY   61  55  82 SE10      30.06S
APPLETON       CLOUDY    61  55  82 SE5       30.02F
BENSON         CLOUDY    61  54  77 S6        30.04F
ORTONVILLE     CLOUDY    59  55  88 SE6       30.02F
MADISON        CLOUDY    61  57  88 SE5       30.02F
WILLMAR        CLOUDY    61  55  82 SE8       30.07S
$$
MNZ033>034-036-042>043-049>051-058-059-271400-
   Central Minnesota

CITY           SKY/WX    TMP DP  RH WIND       PRES   REMARKS
ST CLOUD       MOSUNNY   60  56  86 SE9       30.07F
SAUK CENTRE    CLOUDY    60  55  85 SE6       30.06S
PAYNESVILLE    CLOUDY    61  55  79 E9        30.08R
AITKIN         CLOUDY    57  52  82 CALM      30.07F
PINE RIVER     MOSUNNY   55  55 100 CALM      30.10F
BRAINERD       CLOUDY    58  54  86 SE5       30.08F
STAPLES        CLOUDY    55  54  94 CALM      30.05F
LONG PRAIRIE   FAIR      57  54  88 SE6       30.06F
LITTLE FALLS   CLOUDY    59  54  82 SE5       30.06F
LITCHFIELD     CLOUDY    63  57  82 SE6       30.09R
BUFFALO        MOSUNNY   62  55  76 SE6       30.10R
MAPLE LAKE     MOSUNNY   62  57  86 S5        30.10R
$$
MNZ037-044-045-052-053-271400-
   East Central Minnesota

CITY           SKY/WX    TMP DP  RH WIND       PRES   REMARKS
PRINCETON      MOSUNNY   61  55  82 SE3       30.09F
MORA           CLOUDY    54  52  94 CALM      30.11F
CAMBRIDGE      MOSUNNY   63  52  67 CALM      30.08F
MOOSE LAKE     SUNNY     50  48  93 CALM      30.11S
HINCKLEY       CLOUDY    54  54 100 CALM      30.12F
CLOQUET        SUNNY     52  48  87 CALM      30.13R
MCGREGOR       SUNNY     52  52 100 CALM      30.10F
$$
MNZ071>073-080-081-089-090-097-098-271400-
   Southwest Minnesota

CITY           SKY/WX    TMP DP  RH WIND       PRES   REMARKS
MONTEVIDEO     CLOUDY    61  57  88 S7        30.04F
GRANITE FALLS  CLOUDY    59  55  87 SE6       30.06F
CANBY          CLOUDY    58  57  94 SE7       30.02F
MARSHALL       CLOUDY    61  54  77 SE7       30.04F
REDWOOD FALLS  CLOUDY    59  55  87 SE6       30.06S
OLIVIA         CLOUDY    57  52  82 SE8       30.06S
PIPESTONE      CLOUDY    61  59  94 S5        30.09R
WINDOM         CLOUDY    61  55  82 SE5       30.08S
WORTHINGTON    CLOUDY    61  54  77 S5        30.10R
JACKSON        CLOUDY    59  55  88 CALM      30.11R
TRACY          CLOUDY    63  58  86 S7        30.05F
SLAYTON        CLOUDY    61  59  93 CALM      30.09S
$$
MNZ065>067-074>077-082>085-091>093-271400-
   South Central Minnesota

CITY           SKY/WX    TMP DP  RH WIND       PRES   REMARKS
MANKATO        PTSUNNY   57  52  82 SE9       30.10S
NEW ULM        CLOUDY    57  55  94 SE6       30.08S
FAIRMONT       CLOUDY    57  52  82 S7        30.09S
GLENCOE        PTSUNNY   61  57  86 SE3       30.09R
FARIBAULT      PTSUNNY   61  54  77 SE5       30.13R
OWATONNA       PTSUNNY   61  54  77 SE9       30.12S
WASECA         PTSUNNY   55  52  88 SE6       30.13S
ALBERT LEA     PTSUNNY   57  54  88 SE5       30.13R
$$
MNZ078>079-086>088-094>096-271400-
   Southeast Minnesota

CITY           SKY/WX    TMP DP  RH WIND       PRES   REMARKS
ROCHESTER      MOSUNNY   55  52  89 S7        30.16R
RED WING       CLOUDY    59  57  94 CALM      30.12S
STANTON        PTSUNNY   58  56  91 CALM      30.11F
DODGE CENTER   MOSUNNY   55  52  88 S5        30.14R
WINONA         CLOUDY    55  54  94 SE5       30.16S
AUSTIN         PTSUNNY   57  54  88 SE5       30.14R
PRESTON        SUNNY     54  51  89 CALM      30.17R
$$
ABBREVIATIONS USED IN REMARKS
   TC - TEMPERATURES IN CELSIUS
  WCI - WIND CHILL INDEX
   HX - HEAT INDEX
  VSB - VISIBILITY
$$


USA.gov is the U.S. government's official web portal to all federal, state and local government web resources and services.